Location: Okie-Tex Star Party
(36.8978°N, 102.9520°W)
Time: 18:07:06
(UTC-05:00)

Oscar 16 - Visible Passes

Search period start: 01 July 2015 00:00
Search period end: 11 July 2015 00:00
Orbit: 774 x 792 km, 98.5° (Epoch: 01 July)

Date Brightness Start Highest point End Pass type
(mag) Time Alt. Az. Time Alt. Az. Time Alt. Az.
01 Jul 11.4 02:56:58 10° NNE 03:01:49 42° E 03:01:49 42° E visible
01 Jul 12.2 04:37:06 10° NNW 04:40:56 21° WNW 04:42:23 18° W visible
02 Jul 12.4 02:26:20 10° NE 02:29:52 21° E 02:29:52 21° E visible
02 Jul 11.2 04:04:48 10° N 04:09:37 41° WNW 04:10:27 38° W visible
03 Jul 10.4 03:33:02 10° NNE 03:38:11 84° WNW 03:38:31 77° SW visible
04 Jul 11.2 03:01:40 10° NNE 03:06:34 47° E 03:06:34 47° E visible
04 Jul 12.3 04:42:03 10° NNW 04:45:39 19° WNW 04:47:09 17° W visible
05 Jul 12.3 02:30:54 10° NE 02:34:37 23° E 02:34:37 23° E visible
05 Jul 11.4 04:09:39 10° N 04:14:21 37° WNW 04:15:12 34° W visible
06 Jul 13.1 02:01:58 10° ENE 02:02:41 11° E 02:02:41 11° E visible
06 Jul 10.5 03:37:48 10° N 03:42:56 75° WNW 03:43:15 72° WSW visible
07 Jul 11.0 03:06:23 10° NNE 03:11:18 53° E 03:11:18 53° E visible
07 Jul 12.4 04:47:02 10° NNW 04:50:23 17° WNW 04:51:53 15° W visible
08 Jul 12.2 02:35:29 10° NE 02:39:21 25° E 02:39:21 25° E visible
08 Jul 11.5 04:14:30 10° N 04:19:06 33° WNW 04:19:56 31° W visible
09 Jul 13.0 02:05:54 10° ENE 02:07:24 12° E 02:07:24 12° E visible
09 Jul 10.6 03:42:35 10° N 03:47:42 67° WNW 03:47:59 66° W visible
10 Jul 10.9 03:11:06 10° NNE 03:16:02 59° E 03:16:02 59° E visible
10 Jul 12.5 04:52:03 10° NNW 04:55:06 15° WNW 04:56:36 14° W visible
